Find Starlink 30289

NORAD ID: 57653 Int'l Des: 2023-122 Owner: SPXS Country: US Constellation: starlink operational
LEOCIRCULAR

Live Position

Loading 3D Globe...

About Starlink 30289

Description loading...

Upcoming Passes

Passes for default location (London). Set your location on the main map for personalized predictions.

Altitude History

Loading altitude history...

Two-Line Element Set

1 57653U 23122X 26106.62357190 .00034787 00000-0 12748-2 0 9997
2 57653 43.0017 227.6079 0000831 318.7652 41.3137 15.27395552148129
Epoch: Apr 16, 2026 • Age: 7 hours

Current Status

Altitude 496.5 km
Velocity 7.62 km/s
Sub-Earth Point -43.15°S, 46.68°W
Launch Date Aug 17, 2023
Age 2.6 years
Type internet

Technical Details

Classification Payload
Mass 730.00 kg
Dry Mass 700.00 kg
Total Mass 730.00 kg
Length 0.30 m
Diameter 4.10 m
Span 29.00 m
Shape Box + pan
Manufacturer SPXS
Bus Type Starlink V2M
Phase Status In Orbit
Owner/State SPXS/US

Most Searched